Погода в Темрюке

Россия / Краснодарский край     45°16′42″N   37°22′12″E
темп.,
°C
ветер,
м/с
пор.,
м/с
влажн.,
%
обл.,
%
осадки,
мм/ч
давл.,
гПа
погр.,
м
17 мая, пн
пн1700:00+17ю589796 1.3 1001157
03:00+16ю81297100 1.3 1002338
06:00+16ююз81192100 0.0 1004408
09:00+17ююз71086100 0.0 1006475
12:00+18ююз7983100 0.0 1007519
15:00+17ююз688599 0.0 1008507
18:00+17ююз6784100 0.0 1009532
21:00+15ююз812926 0.0 1010430
18 мая, вт
вт1800:00+15ююз8129083 0.0 1010467
03:00+14ююз58910 0.0 1010284
06:00+14ю47910 0.0 1010258
09:00+18ююз79713 0.0 1010696
12:00+19ююз9106613 0.0 1011836
15:00+17ююз81275100 0.0 1010710
18:00+18ю913745 0.0 1010632
21:00+16ю813863 0.0 1010403
19 мая, ср
ср1900:00+15ююз7119181 0.0 1010369
03:00+15юз91380100 0.0 1010755
06:00+15юз812830 0.0 1010578
09:00+17юз1114690 0.1 10111197
12:00+18юз11136543 0.1 10131086
15:00+18юз11137021 0.1 10131151
18:00+17юз9117438 0.2 1014737
21:00+15юз711835 0.6 1016351
20 мая, чт
чт2000:00+14юз610834 0.0 1016285
03:00+14юз59820 0.0 1017247
06:00+14ююз47820 0.0 1017196
09:00+18ююз455931 0.0 1017531
12:00+21ююз234494 0.0 1017960
15:00+21св554842 0.0 1016704
18:00+22всв48515 0.0 1015557
21:00+17в613680 0.0 1015262
21 мая, пт
пт2100:00+16в715701 0.0 1013315
03:00+14в7157319 0.0 1013285
06:00+14в714805 0.0 1012259
09:00+21в796259 0.0 1012314
12:00+27в78449 0.0 1011506
15:00+30в79400 0.0 1011739
18:00+27в812570 0.0 1010540
21:00+22в815780 0.0 1010322